Voltar ao catálogo

CZ-4B DEB

AtivoLEO
NORAD 43430·DEBRIS·🇨🇳 China

Lançado Jun 15, 2017 de Jiuquan Satellite Launch Center

Loading…

Próximas Passagens (próximas 24 horas)

TLE

AtualizadoSource: Space-Track

Época: Sep 14, 2026, 13:09 UTC

1 43430U 17034F   26257.54830759  .00006869  00000-0  52029-3 0  9992
2 43430  42.9911 333.2777 0120760  15.6831 344.7701 14.97152901489774

Acompanhe CZ-4B DEB em tempo real com AllMySat

Download on the App Store